Flag for Finland Weather past 2 weeks in Jakobstad, Finland

39 °F

Passing clouds.

Feels Like: 32 °F
Forecast: 42 / 47 °F
Wind: 13 mph from Southwest

Location: Kruunupyy

Current Time: Nov 27, 2015 at 8:37:50 AM

Latest Report: Nov 27, 2015 at 7:50 AM

Visibility: N/A

Pressure: 29.18 "Hg

Humidity: 87%

Dew point: 36 °F

Location of JakobstadLocation

Historic Weather in Jakobstad — Graph


Jakobstad temperature yesterday

Maximum temperature yesterday: 37 °F (at 12:20 AM)
Minimum temperature yesterday: 36 °F (at 9:20 AM)
Average temperature yesterday: 37 °F

Past Weeks' High & Low Weather Summary

High45 °F (Nov 14, 5:20 AM)100% (Nov 12, 6:20 AM)29.89 "Hg (Nov 12, 6:20 AM)
Low21 °F (Nov 23, 4:20 PM)81% (Nov 27, 12:20 AM)29.12 "Hg (Nov 21, 5:20 AM)
Average34 °F96%29.48 "Hg
* Reported Nov 12 6:20 AM — Nov 27 6:50 AM, Jakobstad, Weather by CustomWeather, © 2015

Note: Actual official high and low records may vary slightly from our data, if they occured in-between our weather recording intervals... More about our weather records


Jakobstad weather history for previous 24 hours

Time TempWeatherWind HumidityBarometerVisibility
6:50 AM
Fri, Nov 27
39 °FPassing clouds.13 mph87%29.18 "HgN/A
5:50 AM39 °FPassing clouds.14 mph87%29.15 "HgN/A
5:20 AM39 °FPassing clouds.16 mph87%29.15 "HgN/A
5:03 AM39 °FPassing clouds.17 mph87%29.15 "HgN/A
4:20 AM39 °FPassing clouds.20 mph81%29.12 "HgN/A
3:50 AM39 °FPassing clouds.22 mph81%29.12 "HgN/A
3:20 AM39 °FPassing clouds.21 mph87%29.15 "HgN/A
2:50 AM37 °FPassing clouds.22 mph93%29.15 "HgN/A
2:20 AM37 °FSprinkles. Passing clouds.18 mph93%29.15 "HgN/A
1:50 AM37 °FLight rain. Passing clouds.18 mph93%29.15 "Hg4 mi
1:20 AM37 °FSprinkles. Mostly cloudy.20 mph93%29.15 "Hg3 mi
12:50 AM37 °FSprinkles. Mostly cloudy.22 mph87%29.15 "HgN/A
12:20 AM39 °FOvercast.21 mph81%29.18 "HgN/A
11:50 PM
Thu, Nov 26
37 °FPartly cloudy.22 mph87%29.21 "HgN/A
11:20 PM37 °FPassing clouds.23 mph87%29.24 "HgN/A
10:50 PM37 °FPartly cloudy.22 mph87%29.27 "HgN/A
10:20 PM37 °FPartly cloudy.18 mph87%29.30 "HgN/A
9:50 PM37 °FPassing clouds.18 mph87%29.33 "HgN/A
9:20 PM37 °FPassing clouds.18 mph87%29.36 "HgN/A
8:50 PM36 °FPartly cloudy.16 mph93%29.39 "HgN/A
8:20 PM36 °FPassing clouds.16 mph93%29.42 "HgN/A
7:50 PM36 °FClear.14 mph93%29.42 "Hg10 mi
7:20 PM36 °FClear.13 mph93%29.45 "Hg10 mi
6:50 PM36 °FPassing clouds.14 mph93%29.47 "HgN/A
6:20 PM36 °FPassing clouds.13 mph93%29.47 "HgN/A
5:50 PM36 °FPassing clouds.14 mph93%29.47 "HgN/A
5:20 PM36 °FPassing clouds.13 mph93%29.50 "HgN/A
4:50 PM36 °FPassing clouds.13 mph93%29.50 "HgN/A
4:20 PM36 °FPassing clouds.12 mph93%29.50 "HgN/A
3:50 PM36 °FPassing clouds.12 mph93%29.50 "HgN/A
3:20 PM36 °FPassing clouds.12 mph93%29.50 "HgN/A
2:50 PM36 °FPassing clouds.10 mph93%29.53 "HgN/A
2:20 PM36 °FPartly sunny.8 mph100%29.53 "HgN/A
1:50 PM36 °FPartly sunny.9 mph100%29.53 "HgN/A
1:20 PM37 °FBroken clouds.10 mph93%29.53 "HgN/A
12:50 PM37 °FBroken clouds.10 mph93%29.53 "HgN/A
12:20 PM37 °FBroken clouds.12 mph93%29.53 "HgN/A
11:50 AM37 °FBroken clouds.10 mph93%29.53 "HgN/A
11:20 AM37 °FPartly sunny.12 mph93%29.53 "HgN/A
10:50 AM37 °FPartly sunny.10 mph93%29.53 "HgN/A
10:20 AM37 °FPartly sunny.13 mph93%29.53 "HgN/A
9:50 AM37 °FPartly sunny.12 mph93%29.53 "HgN/A
9:20 AM36 °FPassing clouds.12 mph100%29.53 "HgN/A
8:50 AM37 °FPassing clouds.13 mph93%29.50 "HgN/A
8:20 AM37 °FPassing clouds.10 mph93%29.50 "HgN/A
Weather by CustomWeather, © 2015

See weather overviewHow to use our weather pages